244P/Scotti (2022)

Japanese version
Home page
Updated on July 31, 2021

---------------------------------------------------------------------

* Profile

* Orbital Elements

Epoch 2022 Dec. 7.0 TT = JDT 2459920.5
T 2022 Nov. 17.30962 TT                                 Rudenko
q   3.9204028            (2000.0)            P               Q
n   0.09097318     Peri.   93.11367     +0.05040439     -0.99872037
a   4.8962148      Node   353.99248     +0.89994525     +0.04720997
e   0.1992993      Incl.    2.25937     +0.43307961     +0.01813407
P  10.8
From 1323 observations 2000 Nov. 29-2021 July 9, mean residual 1".0.

* Magnitudes Graph

        m1 = 3.0 + 5 log d + 20.0 log r(t - 100)

---------------------------------------------------------------------

The orbital elements are published on M.P.E.C. 2021-O56.
The magnitudes graphs are made with Comet for Windows.

---------------------------------------------------------------------

Copyright(C) Seiichi Yoshida (comet@aerith.net). All rights reserved.